Wind_Speed
29 28 27 26 26 23 13 7 6 5 6 6 7 7 7 7 9 5 7 4 5 7 5 4 6 5 6 4 3 3 7 11 9 15 14 13 11 3 2 9 6 4 8 16 16
31 30 29 27 26 26 16 8 5 4 5 6 6 7 7 9 8 9 5 8 8 6 4 6 7 7 6 4 3 7 8 9 7 7 17 15 9 11 10 11 10 13 16 17 15
31 30 30 28 27 26 19 9 5 4 4 5 5 6 7 7 9 4 8 10 7 5 2 3 4 7 6 4 2 4 4 6 8 7 15 13 7 5 10 10 11 15 16 15 13
32 31 31 30 28 26 20 8 5 3 4 4 4 6 7 5 1 6 9 12 8 4 4 5 7 8 7 8 3 7 6 5 9 10 12 14 9 8 6 9 10 15 15 14 13
32 33 32 31 29 26 20 8 4 4 4 4 4 5 3 7 3 7 13 11 7 4 3 3 8 5 7 6 6 9 7 6 10 13 13 9 10 8 7 8 13 16 13 14 11
33 34 34 34 29 25 19 8 3 3 4 4 3 3 5 8 4 9 11 9 5 5 2 1 2 2 5 5 6 5 9 9 11 12 9 11 9 10 9 13 14 14 14 12 12
32 33 34 33 31 24 19 9 2 2 2 4 3 2 7 4 4 9 10 6 4 1 4 2 2 5 3 8 5 9 11 11 12 13 9 8 11 10 16 15 15 14 14 12 12
32 33 33 33 34 23 17 10 3 2 1 2 2 2 3 4 5 10 11 6 5 3 1 1 1 0 4 3 7 12 12 13 13 13 8 14 15 13 17 17 17 16 14 13 13
33 34 34 33 36 22 14 7 2 3 3 2 2 4 4 4 8 11 12 6 6 6 4 1 4 3 6 11 10 9 12 16 13 16 10 17 11 16 17 18 16 16 16 15 15
33 34 35 32 35 17 12 1 1 2 2 2 2 5 5 8 6 7 10 7 4 9 7 8 6 9 11 12 12 13 12 13 11 16 13 18 16 16 18 19 19 18 17 16 16
34 35 36 36 31 10 8 3 6 6 8 9 2 2 4 2 4 9 9 11 6 7 9 6 9 12 14 15 11 6 10 12 8 5 15 18 18 12 17 19 18 18 18 18 19
34 36 37 38 21 8 4 1 6 5 8 9 13 12 7 3 7 9 11 11 9 11 5 7 11 6 3 7 10 11 12 11 6 6 11 14 17 14 16 21 21 20 19 19 17
34 36 39 37 8 6 3 6 6 5 6 3 6 10 10 13 9 14 14 11 9 11 10 11 6 6 10 10 11 11 11 9 10 7 10 7 14 15 15 17 18 18 17 17 17
33 34 37 32 3 10 3 5 12 4 5 7 5 5 10 11 9 11 15 9 8 10 7 9 7 8 11 13 12 11 6 5 7 10 12 9 13 19 16 17 18 18 17 17 17
33 33 33 21 11 4 4 9 7 3 4 4 5 4 7 15 10 12 14 9 12 10 8 4 9 10 12 12 10 2 5 5 5 9 7 10 8 11 13 15 17 17 17 18 19
32 33 31 8 5 4 9 10 3 6 6 4 5 8 12 18 5 8 12 8 4 7 8 9 1 5 8 5 6 10 7 6 6 8 10 13 10 9 10 9 6 5 10 11 12
33 33 21 6 5 10 8 5 6 6 3 6 4 7 12 12 13 10 15 17 11 11 12 11 13 6 8 9 7 11 8 6 7 7 5 4 6 12 2 1 2 5 7 8 9
32 27 9 6 11 9 5 7 9 3 4 2 1 5 10 10 16 11 14 15 15 11 2 9 13 15 12 14 10 15 8 2 4 3 3 6 6 4 2 2 4 5 7 8 8
29 11 3 7 6 5 7 12 4 6 1 3 5 7 8 8 6 13 13 14 14 15 9 6 7 5 5 7 11 8 10 4 6 5 8 5 4 9 7 6 7 10 10 10 8
18 9 2 5 2 5 8 13 3 1 3 4 8 3 7 7 9 8 13 9 13 11 15 4 4 6 7 7 5 11 10 6 7 4 8 4 4 7 7 7 9 11 11 11 9
7 4 4 5 2 5 9 10 8 3 3 3 4 3 3 2 2 5 3 6 7 11 15 14 8 6 7 11 12 7 11 7 4 3 4 5 4 4 6 3 6 10 11 12 10
6 4 3 3 5 2 7 5 1 7 5 5 4 5 6 3 5 5 5 4 2 3 8 16 8 13 16 3 6 11 12 14 8 8 6 7 8 3 5 5 5 6 2 7 9
5 5 1 3 5 7 3 5 3 7 5 5 6 5 3 5 5 8 7 4 6 4 3 5 9 12 14 6 6 11 14 13 11 6 9 6 5 4 3 3 1 2 7 9 10
4 3 3 3 1 6 5 8 8 3 3 4 3 5 6 10 9 6 8 1 7 4 6 5 11 12 12 15 11 18 17 17 16 11 11 11 14 9 7 6 4 7 10 12 10
3 1 4 2 4 3 4 1 10 7 4 5 5 6 6 6 8 10 7 7 3 3 3 5 9 13 17 17 14 13 17 18 18 17 14 11 9 8 1 3 7 9 11 11 9
4 3 3 3 3 5 4 7 8 5 4 8 8 3 5 7 6 3 5 2 2 3 4 1 9 16 20 22 17 17 17 16 18 15 9 14 10 7 5 8 10 10 10 9 8
1 2 4 3 3 5 5 4 5 3 3 1 2 3 6 1 6 10 7 6 5 4 1 2 7 8 12 16 26 17 15 16 15 10 12 12 7 10 9 10 10 10 9 9 7
Wind_Direction
24 23 22 20 19 14 360 338 311 289 279 275 277 280 285 294 297 254 233 110 166 170 180 205 213 207 209 180 224 256 223 187 180 181 144 159 153 115 123 129 84 76 81 118 138
18 17 15 13 13 13 4 352 326 295 280 278 280 283 291 301 275 232 173 162 167 173 195 208 192 189 183 183 188 247 223 164 163 123 159 167 178 146 162 144 110 110 115 133 145
12 12 10 9 7 7 3 352 334 300 279 275 285 288 294 301 248 107 169 174 176 176 231 211 198 221 183 210 142 183 169 159 169 175 155 159 154 165 188 186 153 152 144 150 155
8 6 5 4 3 1 360 349 330 300 278 279 286 292 297 253 250 122 172 178 176 190 202 175 191 193 181 165 128 133 107 171 152 171 163 163 144 183 209 54 131 137 143 150 158
6 5 3 0 358 355 357 346 319 297 276 273 287 303 285 222 117 148 157 166 177 203 210 172 189 185 172 144 158 136 129 129 153 167 168 145 186 151 164 123 130 136 149 155 150
5 3 2 1 355 351 351 343 297 278 277 269 280 302 252 228 108 156 158 170 193 205 134 254 75 333 120 136 228 127 145 143 156 163 166 192 151 196 136 143 142 152 160 159 156
3 1 360 359 355 347 345 336 278 249 263 260 254 275 250 52 141 174 178 194 181 174 177 109 31 252 176 146 137 148 149 156 180 172 176 202 178 214 152 166 161 170 169 168 172
359 358 357 356 354 344 343 327 243 195 196 172 207 252 254 146 153 170 186 183 189 202 312 235 268 268 268 102 170 189 184 184 177 187 168 211 186 194 164 178 181 181 180 186 185
357 355 354 354 353 343 344 350 168 170 175 173 203 248 185 169 202 190 190 210 179 195 186 144 235 246 186 203 185 197 201 210 161 192 165 210 241 165 179 191 192 192 193 197 193
355 353 350 352 348 338 341 33 99 152 215 214 229 222 205 172 170 181 196 202 179 159 169 210 209 206 217 214 212 191 234 194 209 191 208 205 246 169 187 195 201 200 204 205 211
353 350 348 347 345 344 342 263 221 188 208 269 151 301 164 153 166 197 181 185 189 214 215 195 227 211 202 216 263 244 225 204 196 159 210 227 221 188 196 205 209 206 210 214 216
350 348 346 345 343 5 19 347 50 354 292 245 250 256 237 160 173 173 181 196 202 216 187 205 230 186 164 197 213 209 210 202 145 179 220 223 231 215 193 212 215 215 215 217 217
347 347 344 345 353 30 28 78 358 320 260 239 232 239 210 201 196 175 194 201 211 213 209 257 83 145 193 183 199 206 220 212 244 169 221 251 229 203 219 217 221 229 230 226 223
345 344 344 345 358 338 148 342 336 238 267 152 198 200 194 196 209 189 200 200 204 229 210 247 127 201 204 205 219 203 215 232 213 222 245 210 260 193 203 215 220 226 232 235 226
340 342 340 338 312 302 342 325 324 232 271 109 145 120 169 192 130 180 190 202 216 192 208 170 204 204 208 214 207 48 167 220 235 246 291 213 252 269 186 217 221 225 235 235 229
336 337 335 336 295 299 321 316 205 231 234 146 155 184 173 207 175 136 180 223 262 197 213 260 130 234 239 108 219 136 171 196 230 246 239 240 237 254 200 223 220 221 239 242 232
333 333 324 288 321 319 310 218 212 242 99 147 175 193 197 186 196 186 185 197 202 209 216 206 208 173 183 165 162 203 201 231 221 203 245 103 239 270 103 207 277 196 196 183 186
331 330 309 271 293 296 230 210 227 226 211 54 259 217 200 189 208 200 202 209 215 233 248 220 195 199 186 224 204 208 237 210 269 208 131 173 242 122 143 190 210 203 176 170 184
332 324 253 334 284 208 215 210 224 232 315 242 233 232 181 182 236 201 213 220 204 215 235 215 224 127 200 203 235 171 228 304 248 259 269 252 172 222 193 196 194 193 191 191 188
326 311 230 329 34 225 217 233 225 281 277 241 242 284 209 176 216 207 199 216 228 218 229 216 247 206 157 170 186 240 137 189 215 254 264 178 266 280 170 185 189 200 200 194 149
307 292 54 343 281 221 217 220 222 198 278 265 227 192 134 164 268 211 224 201 205 211 223 237 244 169 174 213 203 175 211 222 287 281 257 296 297 112 198 225 208 215 202 181 178
299 251 37 317 231 223 223 219 131 214 206 232 278 278 262 248 253 258 238 249 21 239 210 222 233 243 222 103 312 247 232 202 220 203 217 275 272 150 214 256 244 267 160 137 152
301 285 257 304 236 206 159 202 223 210 206 215 230 251 218 248 255 232 259 17 346 242 279 177 217 231 225 200 203 230 224 233 239 267 246 203 265 138 164 216 198 232 131 137 140
281 272 172 195 324 294 197 200 191 163 175 225 257 234 230 242 235 263 235 131 15 4 1 336 268 232 240 248 237 205 232 219 218 242 239 245 256 258 190 223 142 130 139 141 131
224 113 347 192 151 238 234 191 205 189 200 212 174 225 238 241 238 240 256 269 182 43 248 101 289 285 264 257 270 241 231 222 223 236 251 268 292 277 33 223 151 143 135 132 119
290 294 179 282 277 238 183 198 216 151 235 186 239 192 226 247 270 321 286 251 252 324 350 217 232 284 296 304 251 242 246 240 224 236 246 262 261 264 105 128 146 147 136 119 98
317 238 277 127 228 241 201 190 178 227 163 268 136 264 227 25 338 310 299 293 290 306 330 242 230 204 240 255 279 249 238 219 218 222 232 250 279 125 158 155 144 137 124 107 92
Height
821 818 814 811 807 803 799 797 796 795 794 794 793 793 792 791 789 788 783 783 785 785 785 786 785 783 781 775 775 771 772 779 780 774 779 776 782 783 786 789 794 795 794 803 811
823 819 815 811 807 803 798 796 794 794 793 793 792 791 791 790 788 783 783 783 784 784 784 782 778 779 774 773 772 770 770 771 762 758 772 775 773 784 788 793 797 801 805 809 811
822 819 814 810 806 802 797 795 793 793 792 792 791 790 790 789 785 776 781 783 783 783 784 782 780 776 774 770 772 768 772 773 775 766 764 776 780 780 781 792 791 798 804 808 811
821 817 813 809 804 800 796 793 792 792 791 791 790 789 789 789 786 778 780 782 783 784 783 780 777 776 774 777 772 782 775 770 772 774 771 780 779 785 782 785 786 794 802 807 808
821 817 812 808 803 798 794 792 791 790 790 790 789 788 788 783 774 779 780 782 783 783 780 775 774 773 777 775 775 775 778 773 774 776 775 777 784 786 789 790 792 799 804 806 806
821 816 811 807 802 797 793 790 789 789 788 788 788 788 787 782 778 780 782 783 782 781 779 776 774 772 775 776 775 777 777 780 778 779 782 786 789 789 793 794 798 803 805 806 808
821 816 811 806 800 796 791 788 787 787 787 787 787 787 783 775 779 780 782 782 782 781 778 778 777 774 773 779 775 778 788 785 784 783 788 782 800 798 789 795 800 803 805 807 809
820 815 810 805 799 794 790 786 785 785 786 785 786 786 775 777 778 780 781 782 783 782 781 780 779 775 774 775 778 782 780 797 786 785 785 791 800 787 789 795 799 801 804 807 808
819 814 808 803 798 792 789 786 784 784 785 785 786 784 774 776 777 777 779 777 780 782 782 782 779 777 779 783 789 785 792 789 795 783 789 793 788 782 787 792 796 799 801 804 806
819 813 807 801 795 790 788 786 785 785 786 786 785 785 773 770 773 775 777 778 777 778 780 780 777 782 779 781 796 790 791 786 788 786 786 794 789 778 786 790 792 794 796 799 802
819 812 806 799 793 789 786 787 785 782 782 770 767 769 769 771 773 773 775 776 776 776 783 779 784 786 776 774 768 773 781 786 780 780 788 787 786 783 783 787 789 790 792 795 797
818 811 804 796 790 789 786 782 790 794 782 767 769 768 769 770 771 770 773 776 779 783 780 787 787 768 770 776 781 780 785 786 785 783 788 781 783 774 780 783 781 783 785 789 794
817 810 803 795 790 790 790 791 792 791 782 764 764 765 766 768 768 767 768 769 777 781 780 781 772 774 780 783 785 781 784 781 787 786 783 783 787 781 778 778 778 778 779 783 788
816 810 803 795 794 792 790 792 791 790 780 767 765 760 763 760 771 761 764 767 774 780 777 776 770 780 781 783 778 789 777 782 788 792 797 782 797 775 775 782 779 778 780 781 784
814 809 803 797 797 792 794 791 791 790 797 765 762 758 755 761 755 763 762 766 773 776 780 776 777 781 784 779 776 782 779 785 788 791 791 788 800 773 770 782 776 775 775 774 778
810 806 801 798 797 795 793 791 791 790 796 767 757 761 764 759 760 763 766 764 762 773 773 772 769 772 771 776 776 782 789 790 790 788 810 786 789 773 766 773 767 769 774 775 776
807 803 799 797 793 793 792 789 792 792 762 769 765 758 757 764 763 763 770 774 779 793 787 776 775 769 771 782 781 782 793 806 808 804 803 790 798 772 771 772 774 774 775 775 777
805 799 796 795 793 791 791 785 794 770 767 763 763 759 764 757 761 762 765 772 765 769 776 784 793 773 766 771 778 782 783 808 834 806 787 793 799 776 772 772 771 769 771 774 777
803 799 796 794 788 789 783 786 775 768 769 771 764 766 764 762 760 762 764 764 760 766 785 783 780 762 765 764 769 781 795 777 797 799 806 775 777 770 769 772 771 771 772 775 779
803 797 790 790 788 787 778 779 769 772 770 768 773 767 767 765 768 765 762 755 761 757 757 766 786 767 773 768 772 774 767 798 795 827 815 780 790 784 777 773 771 772 774 775 782
802 791 788 787 788 779 777 769 768 769 770 773 771 772 770 772 765 764 762 757 756 752 754 761 776 777 773 774 768 781 781 779 779 788 814 813 785 764 768 767 768 767 766 772 786
804 788 788 789 780 772 770 770 782 769 769 771 770 770 772 772 774 772 772 763 759 757 768 759 768 778 770 758 758 755 763 768 787 797 797 797 796 759 763 764 766 765 767 774 785
802 792 788 787 775 772 773 773 772 772 770 771 772 770 770 773 783 772 768 760 765 765 764 764 771 781 772 772 769 770 765 763 767 775 787 809 795 762 766 768 769 770 774 785 793
806 788 782 781 782 777 775 771 775 774 773 771 770 772 775 776 770 774 770 765 768 772 777 772 765 769 781 759 746 768 764 760 769 779 780 777 778 764 768 770 777 779 784 789 795
803 792 799 778 782 782 782 778 773 776 771 772 778 774 774 779 774 773 770 771 767 776 779 775 787 766 755 747 746 750 755 756 765 763 774 767 768 764 764 771 777 783 787 793 799
803 796 796 791 792 786 790 778 775 778 777 775 776 780 775 778 773 777 778 776 776 771 773 781 789 785 784 762 754 754 749 747 755 753 761 764 771 757 772 775 782 786 790 797 804
812 809 804 795 789 787 776 779 781 785 780 778 781 780 778 776 779 776 776 775 777 779 779 780 778 794 801 786 771 764 748 752 749 751 756 768 758 765 775 778 783 788 793 801 809